Overview Statistics Trail Chart Weather Telemetry Raw packets
 

This is the latest recevied weather packets stored in our database for station/object PA0HHN. If no packets are shown the sender has not sent any weather packets the latest 10 day(s).

<< 5 6 7 8 9 10 11 >>
Time Temp. Humidity Pressure Rain* Wind** Luminosity Snow
1788466500 17.78° C 90% 1008.5 hPa - - - -
1788465619 18.89° C 89% 1008.8 hPa - - - -
1788464702 18.89° C 88% 1009 hPa - - - -
1788463802 18.89° C 88% 1008.9 hPa - - - -
1788462902 18.89° C 87% 1008.5 hPa - - - -
1788462002 18.89° C 87% 1008.8 hPa - - - -
1788461100 18.89° C 86% 1008.7 hPa - - - -
1788460200 20° C 85% 1008.5 hPa - - - -
1788459302 20° C 84% 1008.8 hPa - - - -
1788458402 20° C 83% 1009 hPa - - - -
1788457500 20° C 81% 1008.8 hPa - - - -
1788456602 21.11° C 79% 1009 hPa - - - -
1788455700 21.11° C 79% 1008.6 hPa - - - -
1788454801 21.11° C 77% 1008.4 hPa - - - -
1788453900 21.11° C 77% 1008.4 hPa - - - -
1788453000 21.11° C 76% 1008.5 hPa - - - -
1788452102 21.11° C 76% 1008.7 hPa - - - -
1788451200 21.11° C 75% 1008.4 hPa - - - -
1788450302 21.11° C 79% 1008.5 hPa - - - -
1788449402 21.11° C 78% 1008.2 hPa - - - -
1788448502 22.22° C 77% 1008.1 hPa - - - -
1788447602 22.22° C 76% 1008.2 hPa - - - -
1788446700 22.22° C 79% 1008.1 hPa - - - -
1788445800 22.22° C 80% 1008.2 hPa - - - -
1788444900 22.22° C 78% 1008.2 hPa - - - -

* Rain since midnight (hover to see other rain measurements)
** Current wind speed in m/s (hover to see current wind gust speed)